Regional Weather Roundup
Issued by NWS

Home | Current Version | Previous Version | Graphics & Text | Print | Product List | Glossary On
Versions: 1 2 3 4 5 6 7 8 9 10 11 12 13 14 15 16 17 18 19 20 21 22 23 24 25 26 27 28 29 30 31 32 33 34 35 36 37 38 39 40 41 42 43 44 45 46 47 48 49 50
000
ASUS43 KDMX 210106
RWRIA

WEATHER ROUNDUP FOR IOWA
NATIONAL WEATHER SERVICE DES MOINES IA
800 PM CDT FRI APR 20 2018

NOTE: "FAIR" INDICATES FEW OR NO CLOUDS BELOW 12,000 FEET WITH NO
SIGNIFICANT WEATHER AND/OR OBSTRUCTIONS TO VISIBILITY.

* - THESE STATIONS ARE NOT NWS STATIONS...THUS NOT UNDER NWS
QUALITY CONTROL.  THEY ALSO DO NOT REPORT WEATHER SUCH
AS PRECIPITATION OR FOG.

IAZ001>003-012>014-020>022-031>034-043>046-210200-
   NORTHWEST IOWA

CITY           SKY/WX    TMP DP  RH WIND       PRES   REMARKS
CARROLL *      CLOUDY    52  36  54 E8        30.35R
CHEROKEE *     CLOUDY    40  34  80 NE9       30.38R WCI  34
DENISON *      CLOUDY    54  34  47 E7        30.35R
LE MARS *      CLOUDY    45  37  76 NE10      30.36R
ORANGE CITY *  CLOUDY    43  37  81 E8        30.37R
SHELDON *      CLOUDY    39  37  93 E9        30.36S WCI  33
SIOUX CITY     CLOUDY    51  37  58 E15       30.33R
SPENCER        CLOUDY    38  31  76 NE10      30.39F WCI  31
STORM LAKE *   CLOUDY    39  36  87 NE13      30.36S WCI  32
$$

IAZ055>058-069>071-079>083-090>094-210200-
   SOUTHWEST IOWA

CITY           SKY/WX    TMP DP  RH WIND       PRES   REMARKS
ATLANTIC *     CLOUDY    55  28  35 E9        30.33R
AUDUBON *      CLOUDY    52  30  43 CALM      30.35S
CLARINDA *     CLOUDY    57  27  30 E5        30.34R
COUNCIL BLFS * CLOUDY    55  30  38 E7        30.31S
CRESTON *      CLOUDY    54  28  37 E9        30.35R
HARLAN  *      CLOUDY    54  30  40 E5        30.36R
LAMONI         CLOUDY    55  26  32 E5        30.33R
RED OAK *      CLOUDY    57  28  33 E7        30.32R
SHENANDOAH *   CLOUDY    57  27  30 E10       30.31S
$$

IAZ047>049-059>061-072>074-084-210200-
   CENTRAL IOWA

CITY           SKY/WX    TMP DP  RH WIND       PRES   REMARKS
AMES           CLOUDY    54  28  36 E5        30.36S
ANKENY *       CLOUDY    54  30  40 E5        30.37S
BOONE *        CLOUDY    50  37  62 E7        30.35F
CHARITON *     MOCLDY    54  27  35 E6        30.34R
DES MOINES     CLOUDY    57  25  29 E5        30.36R
GRINNELL*      CLOUDY    53  25  33 E3        30.39R
KNOXVILLE *    MOCLDY    55  23  28 E6        30.34S
MARSHALLTOWN   CLOUDY    50  34  54 E6        30.37S
NEWTON *       CLOUDY    52  28  40 E7        30.37S
PELLA *        MOCLDY    55  23  29 E5        30.37S
PERRY *        FAIR      51  24  35 E6        30.36S
$$

IAZ004>006-015-016-023>025-035-036-210200-
   NORTH CENTRAL IOWA

CITY           SKY/WX    TMP DP  RH WIND       PRES   REMARKS
ALGONA *       CLOUDY    37  32  81 NE7       30.40F WCI  32
CLARION *      CLOUDY    41  34  75 NE12      30.40S
ESTHERVILLE    CLOUDY    34  29  82 NE8       30.40F WCI  27
FORT DODGE *   CLOUDY    44  38  79 NE9       30.38F
MASON CITY     CLOUDY    36  30  79 NE7       30.43R WCI  30
FOREST CITY *  FAIR      39  30  70 NE3       30.42S
WEBSTER CITY * CLOUDY    48  39  71 NE10      30.36S
IOWA FALLS *   FAIR      49  38  66 NE12      30.40S
$$

IAZ007>011-017>019-026>030-037>042-050>054-066-210200-
   NORTHEAST IOWA

CITY           SKY/WX    TMP DP  RH WIND       PRES   REMARKS
CEDAR RAPIDS   FAIR      53  22  29 E3        30.38R
CHARLES CITY * FAIR      41  30  65 NE8       30.43R
CLINTON *      FAIR      49  28  44 E7        30.40R
DECORAH *      FAIR      45  27  49 N6        30.41S
DUBUQUE        FAIR      50  27  40 E6        30.40R
MONTICELLO *   FAIR      52  27  37 MISG      30.39R
OELWEIN *      FAIR      48  37  66 N10       30.41R
WATERLOO       FAIR      47  36  65 N9        30.40R
$$

IAZ064-065-067-068-078-210200-
   EAST CENTRAL IOWA

CITY           SKY/WX    TMP DP  RH WIND       PRES   REMARKS
DAVENPORT      FAIR      55  19  24 E5        30.40S
IOWA CITY      FAIR      56  17  21 SE3       30.40R
MT. PLEASANT * PTCLDY    52  21  30 SE5       30.38R
MUSCATINE *    FAIR      57  18  21 SE5       30.39R
QUAD CITIES    FAIR      52  26  36 SE3       30.38R
$$

IAZ062-063-075>077-085>089-095>099-210200-
   SOUTHEAST IOWA

CITY           SKY/WX    TMP DP  RH WIND       PRES   REMARKS
BURLINGTON     MOCLDY    55  19  24 E3        30.36S
FAIRFIELD *    CLOUDY    52  23  32 E6        30.37R
FORT MADISON * CLOUDY    54  25  32 CALM      30.38R
KEOKUK *       CLOUDY    54  23  30 E7        30.35R
OSKALOOSA *    FAIR      52  23  32 E7        30.36S
CENTERVILLE *    N/A     54  19  26 CALM      30.35S
OTTUMWA        CLOUDY    55  22  27 E8        30.35S
WASHINGTON *   CLOUDY    52  21  30 SE6       30.39R
$$

ABBREVIATIONS USED IN REMARKS
   TC - TEMPERATURES IN CELSIUS
  WCI - WIND CHILL INDEX
   HX - HEAT INDEX
  VSB - VISIBILITY
$$





USA.gov is the U.S. government's official web portal to all federal, state and local government web resources and services.